User: anonymous   Login
Location: Camaret
(48.2753°N, 4.5961°W)
Time: 16:26:24
(UTC+00:00)
Language:

Cosmos 2263 Rocket - Orbit

View from above orbital plane
View from above orbital plane
View from above satellite
View from above satellite

Ground track
Ground track

The orbit data is extracted from the following two-line orbital elements,

1 22803U 93059B   21018.66568273 -.00000221  00000-0 -86305-4 0  9999
2 22803  70.9908   5.7220 0017822 196.1841 163.8716 14.16830283413787
Epoch (UTC): 18 January 2021 15:58:34
Eccentricity: 0.0017822
inclination: 70.9908°
perigee height: 823 km
apogee height: 849 km
right ascension of ascending node: 5.7220°
argument of perigee: 196.1841°
revolutions per day: 14.16830283
mean anomaly at epoch: 163.8716°
orbit number at epoch: 41378

The dashed part of the orbit path shows where the satellite is in the earth's shadow,  

DLR